Alexandria Esle, LA

6:13 AM CDT on July 23, 2017 (GMT -0500)
Alexandria Esler Regional

Weather History for KESF - September, 2012

Change the Weather History Date:

Sunday, September 23, 2012

  Actual Average Record
Temperature  
Mean Temperature 78 °F -  
Max Temperature 91 °F 85 °F 97 °F (1993)
Min Temperature 64 °F 63 °F 41 °F (1999)
Cooling Degree Days 12    
Growing Degree Days 28 (Base 50)    
Moisture  
Dew Point 66 °F    
Average Humidity 83    
Maximum Humidity 100    
Minimum Humidity 44    
Precipitation  
Precipitation 0.00 in - - ()
Sea Level Pressure  
Sea Level Pressure 30.13 in    
Wind  
Wind Speed 1 mph (NE)    
Max Wind Speed 6 mph    
Max Gust Speed -    
Visibility 5 miles    
Events      
Averages and records for this station are not official NWS values.
T = Trace of Precipitation, MM = Missing Value Source: NWS Daily Summary

Daily Weather History Graph

Daily Weather History Graph

Search for Another Location

Airport or City:

Trip Planner

Search our weather history database for the weather conditions in past years. The results will help you decide how hot, cold, wet, or windy it might be!

Date:

Astronomy

Sep. 23, 2012 Rise Set
Actual Time 6:58 AM CDT 7:03 PM CDT
Civil Twilight 6:34 AM CDT 7:28 PM CDT
Nautical Twilight 6:05 AM CDT 7:56 PM CDT
Astronomical Twilight 5:37 AM CDT 8:24 PM CDT
Moon 2:46 PM CDT 12:31 AM CDT
Length of Visible Light 12h 53m
Length of Day
12h 05m
First Quarter, 60% of the Moon is Illuminated
Sep 23
First Quarter
Sep 29
Full
Oct 8
Last Quarter
Oct 15
New
Oct 21
First Quarter

Hourly Weather History & Observations

Time (CDT) Temp. Heat Index Dew Point Humidity Pressure Visibility Wind Dir Wind Speed Gust Speed Precip Events Conditions
12:08 AM 68.0 °F - 66.2 °F 94% 30.10 in 3.0 mi Calm Calm - N/A   Clear
12:16 AM 69.8 °F - 66.2 °F 88% 30.10 in 1.8 mi Calm Calm - N/A   Clear
12:33 AM 68.0 °F - 66.2 °F 94% 30.10 in 3.0 mi Calm Calm - N/A   Clear
12:53 AM 68.0 °F - 66.0 °F 93% 30.10 in 3.0 mi Calm Calm - N/A   Clear
1:53 AM 66.9 °F - 64.9 °F 93% 30.10 in 3.0 mi Calm Calm - N/A   Clear
2:43 AM 66.2 °F - 64.4 °F 94% 30.11 in 1.8 mi Calm Calm - N/A   Clear
2:53 AM 66.9 °F - 64.0 °F 90% 30.10 in 0.8 mi Calm Calm - N/A   Clear
3:01 AM 66.2 °F - 64.4 °F 94% 30.11 in 1.2 mi Calm Calm - N/A   Clear
3:13 AM 66.2 °F - 64.4 °F 94% 30.11 in 3.0 mi Calm Calm - N/A   Clear
3:50 AM 66.2 °F - 64.4 °F 94% 30.11 in 2.0 mi Calm Calm - N/A   Clear
3:53 AM 64.9 °F - 64.0 °F 97% 30.10 in 1.8 mi Calm Calm - N/A   Clear
4:02 AM 64.4 °F - 62.6 °F 94% 30.11 in 3.0 mi Calm Calm - N/A   Clear
4:14 AM 64.4 °F - 64.4 °F 100% 30.11 in 2.0 mi Calm Calm - N/A   Clear
4:53 AM 64.9 °F - 63.0 °F 93% 30.11 in 1.2 mi Calm Calm - N/A   Clear
5:03 AM 64.4 °F - 62.6 °F 94% 30.11 in 2.5 mi Calm Calm - N/A   Clear
5:19 AM 64.4 °F - 62.6 °F 94% 30.12 in 0.8 mi Calm Calm - N/A   Clear
5:28 AM 64.4 °F - 62.6 °F 94% 30.12 in 2.0 mi Calm Calm - N/A   Clear
5:53 AM 64.9 °F - 63.0 °F 93% 30.12 in 2.0 mi Calm Calm - N/A   Clear
6:07 AM 64.4 °F - 62.6 °F 94% 30.13 in 3.0 mi Calm Calm - N/A   Clear
6:53 AM 64.0 °F - 62.1 °F 93% 30.13 in 4.0 mi Calm Calm - N/A   Clear
7:02 AM 64.4 °F - 62.6 °F 94% 30.14 in 1.8 mi Calm Calm - N/A   Clear
7:29 AM 64.4 °F - 62.6 °F 94% 30.14 in 3.0 mi Calm Calm - N/A   Clear
7:53 AM 66.9 °F - 64.0 °F 90% 30.15 in 5.0 mi Calm Calm - N/A   Clear
8:53 AM 73.9 °F - 68.0 °F 82% 30.16 in 8.0 mi Calm Calm - N/A   Clear
9:53 AM 82.9 °F 87.0 °F 70.0 °F 65% 30.17 in 10.0 mi NNW 4.6 mph - N/A   Clear
10:53 AM 86.0 °F 90.1 °F 69.1 °F 57% 30.18 in 10.0 mi Calm Calm - N/A   Clear
11:53 AM 89.1 °F 92.1 °F 66.9 °F 48% 30.18 in 10.0 mi Variable 3.5 mph - N/A   Partly Cloudy
12:53 PM 89.1 °F 92.1 °F 66.9 °F 48% 30.17 in 10.0 mi North 5.8 mph - N/A   Partly Cloudy
1:53 PM 89.1 °F 92.9 °F 68.0 °F 50% 30.14 in 10.0 mi Calm Calm - N/A   Scattered Clouds
2:53 PM 91.9 °F 95.4 °F 66.9 °F 44% 30.13 in 10.0 mi Variable 3.5 mph - N/A   Partly Cloudy
3:53 PM 91.9 °F 95.4 °F 66.9 °F 44% 30.12 in 10.0 mi Variable 4.6 mph - N/A   Scattered Clouds
4:53 PM 90.0 °F 92.8 °F 66.9 °F 46% 30.10 in 10.0 mi ESE 4.6 mph - N/A   Clear
5:53 PM 90.0 °F 95.4 °F 70.0 °F 52% 30.10 in 10.0 mi Calm Calm - N/A   Clear
6:53 PM 80.1 °F 84.2 °F 73.0 °F 79% 30.10 in 10.0 mi Calm Calm - N/A   Clear
7:53 PM 77.0 °F - 72.0 °F 84% 30.12 in 8.0 mi Calm Calm - N/A   Clear
8:53 PM 75.0 °F - 71.1 °F 87% 30.13 in 6.0 mi Calm Calm - N/A   Clear
9:53 PM 73.0 °F - 71.1 °F 93% 30.15 in 3.0 mi Calm Calm - N/A   Clear
10:05 PM 73.4 °F - 69.8 °F 88% 30.15 in 2.5 mi Calm Calm - N/A   Clear
10:32 PM 73.4 °F - 69.8 °F 88% 30.16 in 1.0 mi Calm Calm - N/A   Mist
10:39 PM 73.4 °F - 69.8 °F 88% 30.16 in 0.8 mi ENE 4.6 mph - N/A   Mist
10:42 PM 73.4 °F - 69.8 °F 88% 30.16 in 1.5 mi ENE 3.5 mph - N/A   Partly Cloudy
10:44 PM 73.4 °F - 69.8 °F 88% 30.16 in 4.0 mi ENE 3.5 mph - N/A   Scattered Clouds
10:53 PM 73.9 °F - 69.1 °F 85% 30.16 in 9.0 mi ENE 3.5 mph - N/A   Scattered Clouds
11:53 PM 73.9 °F - 66.0 °F 76% 30.16 in 10.0 mi Calm Calm - N/A   Clear